Project,Study,Ord_Occ,Event_Num,Cast_ID,Date_Time_UTC,Date_Time_PST,Lat_Dec,Lon_Dec,Sta_ID,Line,Sta,Depth,Pressure,PrQ,Temp1,Temp1Q,Temp2,Temp2Q,TempAve,Salt1,Salt1Q,Salt1_Corr,Salt2,Salt2Q,Salt2_Corr,SaltAve_Corr,Ox1,Ox1Q,Ox1_CruiseCorr,Ox1_StaCorr,Ox2,Ox2Q,Ox2_CruiseCorr,Ox2_StaCorr,OxAve_StaCorr,Ox1uM,Ox1uM_CruiseCorr,Ox1uM_StaCorr,Ox2uM,Ox2uM_CruiseCorr,Ox2uM_StaCorr,OxAveuM_StaCorr,FluorV,FluorQ,EstChl_CruiseCorr,EstChl_StaCorr,ISUSV,ISUSQ,EstNO3_CruiseCorr,EstNO3_StaCorr,SigThetaTS1,SigThetaTS1Q,SigThetaTS2,SigThetaTS2Q,BAT,XMiss,TransQ,pH,pHQ,SPAR,SPARQ,PAR,PARQ,PoT1,PoT2,DynHt,SVA,OxSat1,OxSat2,BTL_Depth,BTL_Temp,SaltB,OxB,OxBuM,Chl-a,Phaeo,NO3,NO2,NH4,PO4,SIL
CalCOFI,2101RL,047,,2101_047d,27-Jan-2021 02:00:40,26-Jan-2021 18:00:40,34.17607,-119.50702,083.3 042.0,083.3,042.0,3.000,3.022,,13.0449,,13.0452,,13.0451,33.5888,,33.5946,33.5865,,33.5885,33.5916,4.7065,,4.9257,4.9805,4.6003,,4.8840,4.9395,4.9600,205.007,214.8615,179.2787,200.382,228.4234,177.7462,178.5125,0.1437,,0.9293,1.2156, ,, , ,25.2909,,25.2890,,0.8787,80.2780,,,,3.6385E+00,,1.0000E-12,,13.0445,13.0448,-0.0017,267.174,78.779,77.001,,,,,,,,,,,,
CalCOFI,2101RL,047,,2101_047d,27-Jan-2021 02:01:02,26-Jan-2021 18:01:02,34.17593,-119.50701,083.3 042.0,083.3,042.0,4.000,4.029,,13.0450,,13.0454,,13.0452,33.5889,,33.5947,33.5865,,33.5885,33.5916,4.6902,,4.9087,4.9634,4.6096,,4.8939,4.9494,4.9564,204.296,214.1173,178.7623,200.788,227.6328,178.0444,178.4034,0.1246,,0.7728,1.0196, ,, , ,25.2910,,25.2891,,0.8786,80.2799,,,,3.6981E+00,,1.0000E-12,,13.0444,13.0448,0.0080,267.190,78.506,77.157,4,,33.5850,4.915,214.40,1.016,0.295,,,,,
CalCOFI,2101RL,047,,2101_047d,27-Jan-2021 02:01:07,26-Jan-2021 18:01:07,34.17590,-119.50700,083.3 042.0,083.3,042.0,5.000,5.036,,13.0447,,13.0446,,13.0447,33.5890,,33.5948,33.5865,,33.5885,33.5917,4.7006,,4.9195,4.9743,4.6292,,4.9147,4.9703,4.9723,204.751,214.5935,179.0927,201.640,228.1387,178.6702,178.8815,0.1265,,0.7884,1.0391, ,, , ,25.2911,,25.2892,,0.8792,80.2676,,,,3.6966E+00,,1.0000E-12,,13.0441,13.0440,0.0135,267.210,78.681,77.484,,,,,,,,,,,,
CalCOFI,2101RL,047,,2101_047d,27-Jan-2021 02:01:09,26-Jan-2021 18:01:09,34.17588,-119.50700,083.3 042.0,083.3,042.0,6.000,6.043,,13.0437,,13.0438,,13.0438,33.5889,,33.5947,33.5864,,33.5884,33.5916,4.6999,,4.9188,4.9736,4.6363,,4.9222,4.9779,4.9758,204.720,214.5611,179.0702,201.951,228.1043,178.8987,178.9845,0.1291,,0.8097,1.0658, ,, , ,25.2913,,25.2893,,0.8774,80.3038,,,,3.6947E+00,,1.0000E-12,,13.0428,13.0430,0.0157,267.216,78.667,77.602,,,,,,,,,,,,
CalCOFI,2101RL,047,,2101_047d,27-Jan-2021 02:01:10,26-Jan-2021 18:01:10,34.17584,-119.50698,083.3 042.0,083.3,042.0,7.000,7.051,,13.0432,,13.0432,,13.0432,33.5889,,33.5947,33.5866,,33.5886,33.5917,4.6942,,4.9128,4.9676,4.6326,,4.9183,4.9740,4.9708,204.471,214.3004,178.8894,201.787,227.8274,178.7782,178.8338,0.1311,,0.8260,1.0863, ,, , ,25.2914,,25.2896,,0.8777,80.2986,,,,3.6947E+00,,1.0000E-12,,13.0422,13.0422,0.0184,267.231,78.570,77.538,,,,,,,,,,,,
CalCOFI,2101RL,047,,2101_047d,27-Jan-2021 02:01:11,26-Jan-2021 18:01:11,34.17584,-119.50698,083.3 042.0,083.3,042.0,8.000,8.058,,13.0426,,13.0430,,13.0428,33.5888,,33.5946,33.5865,,33.5885,33.5916,4.6818,,4.8999,4.9546,4.6179,,4.9027,4.9583,4.9565,203.930,213.7341,178.4964,201.147,227.2258,178.3081,178.4023,0.1316,,0.8301,1.0914, ,, , ,25.2915,,25.2897,,0.8785,80.2828,,,,3.6947E+00,,1.0000E-12,,13.0415,13.0419,0.0211,267.250,78.362,77.292,,,,,,,,,,,,
CalCOFI,2101RL,047,,2101_047d,27-Jan-2021 02:01:13,26-Jan-2021 18:01:13,34.17583,-119.50698,083.3 042.0,083.3,042.0,9.000,9.065,,13.0400,,13.0406,,13.0403,33.5890,,33.5948,33.5867,,33.5887,33.5918,4.6647,,4.8820,4.9367,4.6053,,4.8893,4.9448,4.9408,203.186,212.9553,177.9561,200.601,226.3984,177.9070,177.9316,0.1280,,0.8006,1.0545, ,, , ,25.2922,,25.2903,,0.8774,80.3048,,,,3.6947E+00,,1.0000E-12,,13.0388,13.0393,0.0238,267.214,78.072,77.078,,,,,,,,,,,,
CalCOFI,2101RL,047,,2101_047d,27-Jan-2021 02:01:15,26-Jan-2021 18:01:15,34.17582,-119.50698,083.3 042.0,083.3,042.0,10.000,10.072,,13.0373,,13.0410,,13.0392,33.5890,,33.5948,33.5866,,33.5886,33.5917,4.6640,,4.8812,4.9360,4.6033,,4.8872,4.9427,4.9394,203.155,212.9229,177.9335,200.512,226.3639,177.8417,177.8876,0.1263,,0.7867,1.0370, ,, , ,25.2927,,25.2902,,0.8783,80.2867,,,,3.6947E+00,,1.0000E-12,,13.0360,13.0397,0.0265,267.192,78.056,77.045,10,,33.5836,4.899,213.71,0.957,0.323,,,,,
CalCOFI,2101RL,047,,2101_047d,27-Jan-2021 02:01:16,26-Jan-2021 18:01:16,34.17579,-119.50697,083.3 042.0,083.3,042.0,11.000,11.080,,13.0260,,13.0288,,13.0274,33.5898,,33.5956,33.5872,,33.5892,33.5924,4.6745,,4.8922,4.9470,4.5965,,4.8799,4.9355,4.9413,203.611,213.4002,178.2647,200.216,226.8710,177.6242,177.9445,0.1276,,0.7974,1.0504, ,, , ,25.2956,,25.2930,,0.8799,80.2535,,,,3.6947E+00,,1.0000E-12,,13.0245,13.0273,0.0292,266.945,78.213,76.912,,,,,,,,,,,,
CalCOFI,2101RL,047,,2101_047d,27-Jan-2021 02:01:18,26-Jan-2021 18:01:18,34.17578,-119.50696,083.3 042.0,083.3,042.0,12.000,12.087,,13.0320,,13.0321,,13.0321,33.5895,,33.5953,33.5873,,33.5893,33.5923,4.6578,,4.8748,4.9295,4.5817,,4.8642,4.9197,4.9246,202.887,212.6423,177.7389,199.569,226.0659,177.1490,177.4440,0.1262,,0.7859,1.0360, ,, , ,25.2942,,25.2925,,0.8784,80.2840,,,,3.6947E+00,,1.0000E-12,,13.0304,13.0305,0.0319,267.102,77.945,76.669,,,,,,,,,,,,
CalCOFI,2101RL,047,,2101_047d,27-Jan-2021 02:01:21,26-Jan-2021 18:01:21,34.17576,-119.50696,083.3 042.0,083.3,042.0,13.000,13.094,,13.0298,,13.0275,,13.0287,33.5894,,33.5952,33.5874,,33.5894,33.5923,4.6120,,4.8268,4.8816,4.5446,,4.8248,4.8801,4.8809,200.891,210.5529,176.2892,197.956,223.8463,175.9642,176.1267,0.1267,,0.7900,1.0411, ,, , ,25.2946,,25.2936,,0.8800,80.2528,,,,3.6947E+00,,1.0000E-12,,13.0280,13.0257,0.0346,267.093,77.174,76.042,,,,,,,,,,,,
CalCOFI,2101RL,047,,2101_047d,27-Jan-2021 02:01:22,26-Jan-2021 18:01:22,34.17576,-119.50696,083.3 042.0,083.3,042.0,14.000,14.101,,13.0145,,13.0152,,13.0149,33.5903,,33.5961,33.5878,,33.5898,33.5930,4.5870,,4.8007,4.8554,4.5271,,4.8062,4.8614,4.8584,199.800,209.4108,175.4968,197.194,222.6331,175.4045,175.4507,0.1252,,0.7777,1.0257, ,, , ,25.2984,,25.2963,,0.8788,80.2757,,,,3.6947E+00,,1.0000E-12,,13.0126,13.0133,0.0372,266.763,76.731,75.730,,,,,,,,,,,,
CalCOFI,2101RL,047,,2101_047d,27-Jan-2021 02:01:22,26-Jan-2021 18:01:22,34.17576,-119.50696,083.3 042.0,083.3,042.0,15.000,15.109,,12.9911,,12.9858,,12.9885,33.5909,,33.5967,33.5891,,33.5911,33.5939,4.5738,,4.7868,4.8416,4.5208,,4.7995,4.8547,4.8482,199.223,208.8068,175.0777,196.916,221.9915,175.2003,175.1390,0.1247,,0.7736,1.0206, ,, , ,25.3035,,25.3032,,0.8783,80.2858,,,,3.6947E+00,,1.0000E-12,,12.9890,12.9838,0.0399,266.298,76.474,75.579,,,,,,,,,,,,
CalCOFI,2101RL,047,,2101_047d,27-Jan-2021 02:01:24,26-Jan-2021 18:01:24,34.17576,-119.50696,083.3 042.0,083.3,042.0,16.000,16.116,,12.9723,,12.9698,,12.9711,33.5917,,33.5975,33.5897,,33.5917,33.5946,4.5789,,4.7922,4.8469,4.5098,,4.7879,4.8430,4.8450,199.445,209.0392,175.2390,196.438,222.2384,174.8492,175.0441,0.1231,,0.7605,1.0042, ,, , ,25.3079,,25.3068,,0.8793,80.2670,,,,3.6947E+00,,1.0000E-12,,12.9701,12.9677,0.0426,265.912,76.530,75.371,,,,,,,,,,,,
CalCOFI,2101RL,047,,2101_047d,27-Jan-2021 02:01:27,26-Jan-2021 18:01:27,34.17575,-119.50696,083.3 042.0,083.3,042.0,17.000,17.123,,12.9335,,12.9324,,12.9330,33.5938,,33.5996,33.5916,,33.5936,33.5966,4.5582,,4.7705,4.8252,4.4999,,4.7773,4.8324,4.8288,198.544,208.0961,174.5846,196.005,221.2364,174.5311,174.5579,0.1241,,0.7687,1.0144, ,, , ,25.3172,,25.3158,,0.8786,80.2810,,,,3.6947E+00,,1.0000E-12,,12.9312,12.9301,0.0453,265.050,76.125,75.149,,,,,,,,,,,,
CalCOFI,2101RL,047,,2101_047d,27-Jan-2021 02:01:29,26-Jan-2021 18:01:29,34.17574,-119.50696,083.3 042.0,083.3,042.0,18.000,18.130,,12.9304,,12.9318,,12.9311,33.5939,,33.5997,33.5915,,33.5935,33.5966,4.4629,,4.6708,4.7254,4.4308,,4.7040,4.7587,4.7421,194.393,203.7508,171.5697,192.995,216.6205,172.3201,171.9449,0.1215,,0.7474,0.9878, ,, , ,25.3180,,25.3158,,0.8786,80.2806,,,,3.6947E+00,,1.0000E-12,,12.9280,12.9294,0.0479,265.006,74.529,73.994,,,,,,,,,,,,
CalCOFI,2101RL,047,,2101_047d,27-Jan-2021 02:01:30,26-Jan-2021 18:01:30,34.17572,-119.50696,083.3 042.0,083.3,042.0,19.000,19.138,,12.8863,,12.8769,,12.8816,33.5927,,33.5985,33.5919,,33.5939,33.5962,4.4638,,4.6717,4.7264,4.4011,,4.6724,4.7271,4.7268,194.427,203.7864,171.5944,191.700,216.6583,171.3689,171.4817,0.1194,,0.7302,0.9662, ,, , ,25.3257,,25.3269,,0.8783,80.2851,,,,3.6947E+00,,1.0000E-12,,12.8837,12.8743,0.0506,264.291,74.474,73.414,,,,,,,,,,,,
CalCOFI,2101RL,047,,2101_047d,27-Jan-2021 02:01:31,26-Jan-2021 18:01:31,34.17572,-119.50696,083.3 042.0,083.3,042.0,20.000,20.145,,12.7871,,12.7885,,12.7878,33.6016,,33.6074,33.5993,,33.6013,33.6044,4.4729,,4.6812,4.7359,4.4096,,4.6814,4.7361,4.7360,194.820,204.1978,171.8799,192.066,217.0953,171.6377,171.7588,0.1167,,0.7081,0.9385, ,, , ,25.3522,,25.3501,,0.8797,80.2574,,,,3.6947E+00,,1.0000E-12,,12.7845,12.7858,0.0533,261.802,74.477,73.426,20,,33.5953,4.735,206.57,0.969,0.267,,,,,
CalCOFI,2101RL,047,,2101_047d,27-Jan-2021 02:01:33,26-Jan-2021 18:01:33,34.17571,-119.50695,083.3 042.0,083.3,042.0,21.000,21.152,,12.7888,,12.7913,,12.7901,33.6012,,33.6070,33.5983,,33.6003,33.6037,4.4596,,4.6673,4.7220,4.4034,,4.6749,4.7295,4.7258,194.240,203.5906,171.4586,191.795,216.4503,171.4387,171.4487,0.1164,,0.7056,0.9354, ,, , ,25.3515,,25.3488,,0.8766,80.3192,,,,3.6947E+00,,1.0000E-12,,12.7860,12.7884,0.0559,261.890,74.258,73.325,,,,,,,,,,,,
CalCOFI,2101RL,047,,2101_047d,27-Jan-2021 02:01:36,26-Jan-2021 18:01:36,34.17570,-119.50694,083.3 042.0,083.3,042.0,22.000,22.160,,12.7878,,12.7842,,12.7860,33.6009,,33.6067,33.5989,,33.6009,33.6038,4.4140,,4.6196,4.6742,4.3557,,4.6242,4.6786,4.6764,192.257,201.5148,170.0183,189.718,214.2452,169.9130,169.9657,0.1173,,0.7130,0.9447, ,, , ,25.3515,,25.3507,,0.8763,80.3267,,,,3.6947E+00,,1.0000E-12,,12.7849,12.7813,0.0585,261.916,73.498,72.521,,,,,,,,,,,,
CalCOFI,2101RL,047,,2101_047d,27-Jan-2021 02:01:37,26-Jan-2021 18:01:37,34.17570,-119.50696,083.3 042.0,083.3,042.0,23.000,23.167,,12.7579,,12.7503,,12.7541,33.6027,,33.6085,33.6016,,33.6036,33.6061,4.4075,,4.6128,4.6674,4.3458,,4.6137,4.6681,4.6678,191.970,201.2144,169.8099,189.285,213.9261,169.5950,169.7025,0.1112,,0.6630,0.8821, ,, , ,25.3588,,25.3594,,0.8748,80.3556,,,,3.6947E+00,,1.0000E-12,,12.7548,12.7473,0.0612,261.246,73.344,72.307,,,,,,,,,,,,
CalCOFI,2101RL,047,,2101_047d,27-Jan-2021 02:01:38,26-Jan-2021 18:01:38,34.17569,-119.50696,083.3 042.0,083.3,042.0,24.000,24.174,,12.7311,,12.7303,,12.7307,33.6059,,33.6117,33.6037,,33.6057,33.6087,4.4045,,4.6096,4.6643,4.3457,,4.6136,4.6680,4.6662,191.837,201.0752,169.7133,189.280,213.7782,169.5913,169.6523,0.1064,,0.6237,0.8328, ,, , ,25.3666,,25.3650,,0.8729,80.3936,,,,3.6947E+00,,1.0000E-12,,12.7279,12.7271,0.0638,260.536,73.255,72.276,,,,,,,,,,,,
CalCOFI,2101RL,047,,2101_047d,27-Jan-2021 02:01:41,26-Jan-2021 18:01:41,34.17566,-119.50696,083.3 042.0,083.3,042.0,25.000,25.182,,12.7300,,12.7314,,12.7307,33.6064,,33.6122,33.6038,,33.6058,33.6090,4.3689,,4.5724,4.6270,4.3306,,4.5975,4.6519,4.6395,190.289,199.4547,168.5890,188.620,212.0568,169.1065,168.8478,0.1071,,0.6294,0.8400, ,, , ,25.3672,,25.3650,,0.8650,80.5542,,,,3.6947E+00,,1.0000E-12,,12.7267,12.7280,0.0664,260.502,72.663,72.026,,,,,,,,,,,,
CalCOFI,2101RL,047,,2101_047d,27-Jan-2021 02:01:42,26-Jan-2021 18:01:42,34.17566,-119.50696,083.3 042.0,083.3,042.0,26.000,26.189,,12.7234,,12.7229,,12.7232,33.6070,,33.6128,33.6048,,33.6068,33.6098,4.3132,,4.5141,4.5687,4.2812,,4.5451,4.5992,4.5840,187.859,196.9110,166.8241,186.470,209.3546,167.5273,167.1757,0.1095,,0.6491,0.8646, ,, , ,25.3690,,25.3673,,0.8672,80.5094,,,,3.6947E+00,,1.0000E-12,,12.7200,12.7194,0.0690,260.363,71.725,71.193,,,,,,,,,,,,
CalCOFI,2101RL,047,,2101_047d,27-Jan-2021 02:01:44,26-Jan-2021 18:01:44,34.17566,-119.50696,083.3 042.0,083.3,042.0,27.000,27.196,,12.6842,,12.6806,,12.6824,33.6092,,33.6150,33.6079,,33.6099,33.6125,4.3038,,4.5043,4.5589,4.2631,,4.5258,4.5799,4.5694,187.449,196.4818,166.5263,185.676,208.8986,166.9440,166.7352,0.1034,,0.5991,0.8020, ,, , ,25.3784,,25.3781,,0.8683,80.4861,,,,3.6947E+00,,1.0000E-12,,12.6806,12.6770,0.0717,259.491,71.512,70.830,,,,,,,,,,,,
CalCOFI,2101RL,047,,2101_047d,27-Jan-2021 02:01:46,26-Jan-2021 18:01:46,34.17565,-119.50695,083.3 042.0,083.3,042.0,28.000,28.204,,12.6535,,12.6557,,12.6546,33.6128,,33.6186,33.6104,,33.6124,33.6155,4.2810,,4.4804,4.5350,4.2346,,4.4956,4.5495,4.5423,186.455,195.4413,165.8044,184.437,207.7933,166.0339,165.9192,0.0986,,0.5597,0.7527, ,, , ,25.3871,,25.3849,,0.8656,80.5406,,,,3.6947E+00,,1.0000E-12,,12.6498,12.6519,0.0743,258.685,71.090,70.322,,,,,,,,,,,,
CalCOFI,2101RL,047,,2101_047d,27-Jan-2021 02:01:47,26-Jan-2021 18:01:47,34.17564,-119.50694,083.3 042.0,083.3,042.0,29.000,29.211,,12.6272,,12.6295,,12.6284,33.6149,,33.6207,33.6120,,33.6140,33.6174,4.2280,,4.4249,4.4795,4.1908,,4.4490,4.5028,4.4912,184.149,193.0274,164.1295,182.526,205.2290,164.6302,164.3799,0.0962,,0.5401,0.7281, ,, , ,25.3939,,25.3913,,0.8567,80.7199,,,,3.6947E+00,,1.0000E-12,,12.6233,12.6257,0.0769,258.064,70.174,69.557,,,,,,,,,,,,
CalCOFI,2101RL,047,,2101_047d,27-Jan-2021 02:01:49,26-Jan-2021 18:01:49,34.17561,-119.50694,083.3 042.0,083.3,042.0,30.000,30.218,,12.5833,,12.5812,,12.5823,33.6191,,33.6249,33.6168,,33.6188,33.6219,4.2244,,4.4212,4.4757,4.1769,,4.4343,4.4879,4.4818,183.987,192.8578,164.0118,181.920,205.0488,164.1851,164.0985,0.0919,,0.5048,0.6840, ,, , ,25.4058,,25.4044,,0.8513,80.8302,,,,3.6947E+00,,1.0000E-12,,12.5793,12.5772,0.0795,256.963,70.051,69.259,30,,33.6052,, ,,,,,,,
CalCOFI,2101RL,047,,2101_047d,27-Jan-2021 02:01:51,26-Jan-2021 18:01:51,34.17560,-119.50694,083.3 042.0,083.3,042.0,31.000,31.226,,12.5719,,12.5723,,12.5721,33.6205,,33.6263,33.6182,,33.6202,33.6233,4.2184,,4.4149,4.4694,4.1694,,4.4263,4.4799,4.4747,183.727,192.5856,163.8230,181.591,204.7597,163.9434,163.8832,0.0853,,0.4508,0.6163, ,, , ,25.4091,,25.4073,,0.8482,80.8927,,,,3.6947E+00,,1.0000E-12,,12.5678,12.5681,0.0821,256.673,69.936,69.122,,,,,,,,,,,,
CalCOFI,2101RL,047,,2101_047d,27-Jan-2021 02:01:53,26-Jan-2021 18:01:53,34.17558,-119.50694,083.3 042.0,083.3,042.0,32.000,32.233,,12.5722,,12.5727,,12.5725,33.6208,,33.6266,33.6183,,33.6203,33.6235,4.2013,,4.3970,4.4515,4.1545,,4.4105,4.4640,4.4578,182.982,191.8058,163.2819,180.941,203.9313,163.4660,163.3740,0.0868,,0.4630,0.6316, ,, , ,25.4092,,25.4072,,0.8395,81.0688,,,,3.6947E+00,,1.0000E-12,,12.5680,12.5685,0.0846,256.684,69.653,68.875,,,,,,,,,,,,
CalCOFI,2101RL,047,,2101_047d,27-Jan-2021 02:01:55,26-Jan-2021 18:01:55,34.17558,-119.50694,083.3 042.0,083.3,042.0,33.000,33.240,,12.5706,,12.5707,,12.5707,33.6220,,33.6278,33.6197,,33.6217,33.6248,4.2061,,4.4020,4.4566,4.1400,,4.3951,4.4486,4.4526,183.189,192.0224,163.4323,180.310,204.1614,163.0025,163.2174,0.0853,,0.4508,0.6163, ,, , ,25.4105,,25.4088,,0.8370,81.1189,,,,3.6947E+00,,1.0000E-12,,12.5663,12.5664,0.0872,256.586,69.730,68.633,,,,,,,,,,,,
CalCOFI,2101RL,047,,2101_047d,27-Jan-2021 02:01:57,26-Jan-2021 18:01:57,34.17558,-119.50694,083.3 042.0,083.3,042.0,34.000,34.248,,12.5690,,12.5703,,12.5697,33.6228,,33.6286,33.6203,,33.6223,33.6255,4.1777,,4.3723,4.4268,4.1292,,4.3836,4.4371,4.4320,181.952,190.7276,162.5338,179.841,202.7859,162.6580,162.5959,0.0830,,0.4319,0.5926, ,, , ,25.4115,,25.4093,,0.8323,81.2150,,,,3.6947E+00,,1.0000E-12,,12.5645,12.5658,0.0898,256.523,69.257,68.455,,,,,,,,,,,,
CalCOFI,2101RL,047,,2101_047d,27-Jan-2021 02:01:58,26-Jan-2021 18:01:58,34.17558,-119.50694,083.3 042.0,083.3,042.0,35.000,35.255,,12.5650,,12.5670,,12.5660,33.6241,,33.6299,33.6214,,33.6234,33.6267,4.1520,,4.3454,4.3999,4.1105,,4.3638,4.4171,4.4085,180.832,189.5551,161.7204,179.024,201.5404,162.0579,161.8892,0.0825,,0.4278,0.5875, ,, , ,25.4133,,25.4109,,0.8327,81.2058,,,,3.6947E+00,,1.0000E-12,,12.5604,12.5624,0.0924,256.377,68.826,68.139,,,,,,,,,,,,
CalCOFI,2101RL,047,,2101_047d,27-Jan-2021 02:02:00,26-Jan-2021 18:02:00,34.17556,-119.50694,083.3 042.0,083.3,042.0,36.000,36.262,,12.5511,,12.5505,,12.5508,33.6261,,33.6319,33.6238,,33.6258,33.6289,4.1524,,4.3458,4.4003,4.1029,,4.3557,4.4090,4.4047,180.848,189.5719,161.7320,178.694,201.5582,161.8155,161.7738,0.0782,,0.3926,0.5434, ,, , ,25.4176,,25.4160,,0.8288,81.2858,,,,3.6947E+00,,1.0000E-12,,12.5463,12.5457,0.0950,255.993,68.813,67.992,,,,,,,,,,,,
CalCOFI,2101RL,047,,2101_047d,27-Jan-2021 02:02:02,26-Jan-2021 18:02:02,34.17555,-119.50693,083.3 042.0,083.3,042.0,37.000,37.270,,12.5376,,12.5373,,12.5375,33.6279,,33.6337,33.6256,,33.6276,33.6307,4.1507,,4.3440,4.3985,4.0860,,4.3377,4.3910,4.3948,180.775,189.4955,161.6790,177.959,201.4770,161.2756,161.4773,0.0769,,0.3819,0.5300, ,, , ,25.4216,,25.4199,,0.8239,81.3851,,,,3.6947E+00,,1.0000E-12,,12.5327,12.5324,0.0976,255.641,68.767,67.694,,,,,,,,,,,,
CalCOFI,2101RL,047,,2101_047d,27-Jan-2021 02:02:05,26-Jan-2021 18:02:05,34.17553,-119.50693,083.3 042.0,083.3,042.0,38.000,38.277,,12.5300,,12.5282,,12.5291,33.6289,,33.6347,33.6269,,33.6289,33.6318,4.1264,,4.3186,4.3731,4.0667,,4.3172,4.3704,4.3718,179.716,188.3869,160.9098,177.115,200.2994,160.6556,160.7827,0.0745,,0.3623,0.5054, ,, , ,25.4239,,25.4227,,0.8202,81.4595,,,,3.6947E+00,,1.0000E-12,,12.5250,12.5231,0.1001,255.443,68.354,67.361,,,,,,,,,,,,
CalCOFI,2101RL,047,,2101_047d,27-Jan-2021 02:02:07,26-Jan-2021 18:02:07,34.17550,-119.50694,083.3 042.0,083.3,042.0,39.000,39.285,,12.5233,,12.5231,,12.5232,33.6300,,33.6358,33.6277,,33.6297,33.6328,4.1167,,4.3084,4.3629,4.0558,,4.3057,4.3588,4.3609,179.294,187.9452,160.6033,176.642,199.8301,160.3082,160.4558,0.0728,,0.3483,0.4880, ,, , ,25.4261,,25.4244,,0.8219,81.4258,,,,3.6947E+00,,1.0000E-12,,12.5181,12.5179,0.1027,255.263,68.185,67.175,,,,,,,,,,,,
CalCOFI,2101RL,047,,2101_047d,27-Jan-2021 02:02:08,26-Jan-2021 18:02:08,34.17550,-119.50694,083.3 042.0,083.3,042.0,40.000,40.292,,12.5141,,12.5143,,12.5142,33.6311,,33.6369,33.6288,,33.6308,33.6339,4.1123,,4.3038,4.3583,4.0517,,4.3013,4.3544,4.3564,179.103,187.7452,160.4646,176.460,199.6177,160.1745,160.3196,0.0726,,0.3467,0.4859, ,, , ,25.4287,,25.4269,,0.8203,81.4592,,,,3.6947E+00,,1.0000E-12,,12.5088,12.5090,0.1053,255.040,68.100,67.094,,,,,,,,,,,,
CalCOFI,2101RL,047,,2101_047d,27-Jan-2021 02:02:09,26-Jan-2021 18:02:09,34.17546,-119.50694,083.3 042.0,083.3,042.0,41.000,41.299,,12.5105,,12.5107,,12.5106,33.6317,,33.6375,33.6293,,33.6313,33.6344,4.1144,,4.3060,4.3605,4.0477,,4.2971,4.3501,4.3553,179.194,187.8405,160.5307,176.287,199.7189,160.0474,160.2891,0.0764,,0.3778,0.5249, ,, , ,25.4299,,25.4281,,0.8198,81.4683,,,,3.6947E+00,,1.0000E-12,,12.5051,12.5052,0.1078,254.953,68.130,67.024,,,,,,,,,,,,
CalCOFI,2101RL,047,,2101_047d,27-Jan-2021 02:02:10,26-Jan-2021 18:02:10,34.17546,-119.50694,083.3 042.0,083.3,042.0,42.000,42.307,,12.5062,,12.5062,,12.5062,33.6322,,33.6380,33.6298,,33.6318,33.6349,4.1140,,4.3056,4.3601,4.0492,,4.2987,4.3517,4.3559,179.176,187.8216,160.5176,176.351,199.6989,160.0945,160.3061,0.0767,,0.3803,0.5280, ,, , ,25.4312,,25.4293,,0.8198,81.4691,,,,3.6947E+00,,1.0000E-12,,12.5006,12.5006,0.1104,254.857,68.117,67.042,,,,,,,,,,,,
CalCOFI,2101RL,047,,2101_047d,27-Jan-2021 02:02:13,26-Jan-2021 18:02:13,34.17545,-119.50693,083.3 042.0,083.3,042.0,43.000,43.314,,12.5052,,12.5051,,12.5052,33.6324,,33.6382,33.6300,,33.6320,33.6351,4.1124,,4.3039,4.3584,4.0428,,4.2919,4.3449,4.3517,179.103,187.7452,160.4646,176.073,199.6177,159.8902,160.1774,0.0763,,0.3770,0.5239, ,, , ,25.4315,,25.4297,,0.8200,81.4648,,,,3.6947E+00,,1.0000E-12,,12.4995,12.4994,0.1130,254.854,68.088,66.935,,,,,,,,,,,,
CalCOFI,2101RL,047,,2101_047d,27-Jan-2021 02:02:17,26-Jan-2021 18:02:17,34.17542,-119.50692,083.3 042.0,083.3,042.0,44.000,44.322,,12.5037,,12.5031,,12.5034,33.6325,,33.6383,33.6302,,33.6322,33.6353,4.1019,,4.2929,4.3474,4.0451,,4.2943,4.3474,4.3474,178.646,187.2668,160.1327,176.175,199.1096,159.9652,160.0490,0.0742,,0.3598,0.5023, ,, , ,25.4319,,25.4303,,0.8191,81.4840,,,,3.6947E+00,,1.0000E-12,,12.4979,12.4973,0.1155,254.840,67.912,66.971,,,,,,,,,,,,
CalCOFI,2101RL,047,,2101_047d,27-Jan-2021 02:02:18,26-Jan-2021 18:02:18,34.17542,-119.50692,083.3 042.0,083.3,042.0,45.000,45.329,,12.5024,,12.5032,,12.5028,33.6327,,33.6385,33.6303,,33.6323,33.6354,4.1005,,4.2915,4.3460,4.0378,,4.2865,4.3396,4.3428,178.588,187.2061,160.0905,175.855,199.0451,159.7301,159.9103,0.0748,,0.3647,0.5085, ,, , ,25.4324,,25.4303,,0.8193,81.4787,,,,3.6947E+00,,1.0000E-12,,12.4964,12.4973,0.1181,254.824,67.888,66.849,,,,,,,,,,,,
CalCOFI,2101RL,047,,2101_047d,27-Jan-2021 02:02:19,26-Jan-2021 18:02:19,34.17540,-119.50692,083.3 042.0,083.3,042.0,46.000,46.336,,12.4982,,12.4987,,12.4985,33.6331,,33.6389,33.6309,,33.6329,33.6359,4.0917,,4.2823,4.3368,4.0331,,4.2816,4.3346,4.3357,178.201,186.8010,159.8095,175.651,198.6147,159.5803,159.6949,0.0747,,0.3639,0.5075, ,, , ,25.4335,,25.4317,,0.8198,81.4682,,,,3.6947E+00,,1.0000E-12,,12.4921,12.4926,0.1207,254.745,67.736,66.766,,,,,,,,,,,,
CalCOFI,2101RL,047,,2101_047d,27-Jan-2021 02:02:20,26-Jan-2021 18:02:20,34.17540,-119.50692,083.3 042.0,083.3,042.0,47.000,47.344,,12.4959,,12.4958,,12.4959,33.6332,,33.6390,33.6311,,33.6331,33.6361,4.0888,,4.2792,4.3337,4.0310,,4.2793,4.3323,4.3330,178.075,186.6691,159.7180,175.558,198.4746,159.5120,159.6150,0.0734,,0.3532,0.4941, ,, , ,25.4341,,25.4324,,0.8188,81.4891,,,,3.6947E+00,,1.0000E-12,,12.4896,12.4896,0.1232,254.713,67.684,66.727,,,,,,,,,,,,
CalCOFI,2101RL,047,,2101_047d,27-Jan-2021 02:02:22,26-Jan-2021 18:02:22,34.17540,-119.50692,083.3 042.0,083.3,042.0,48.000,48.351,,12.4901,,12.4899,,12.4900,33.6341,,33.6399,33.6320,,33.6340,33.6370,4.0854,,4.2757,4.3302,4.0196,,4.2672,4.3202,4.3252,177.927,186.5142,159.6105,175.062,198.3100,159.1476,159.3791,0.0728,,0.3483,0.4880, ,, , ,25.4359,,25.4343,,0.8189,81.4864,,,,3.6947E+00,,1.0000E-12,,12.4838,12.4835,0.1258,254.565,67.620,66.530,,,,,,,,,,,,
CalCOFI,2101RL,047,,2101_047d,27-Jan-2021 02:02:24,26-Jan-2021 18:02:24,34.17539,-119.50692,083.3 042.0,083.3,042.0,49.000,49.359,,12.4817,,12.4766,,12.4792,33.6352,,33.6410,33.6337,,33.6357,33.6384,4.0603,,4.2494,4.3039,3.9982,,4.2445,4.2973,4.3006,176.833,185.3690,158.8159,174.131,197.0935,158.4638,158.6399,0.0720,,0.3418,0.4798, ,, , ,25.4384,,25.4382,,0.8175,81.5164,,,,3.6947E+00,,1.0000E-12,,12.4752,12.4702,0.1284,254.350,67.194,66.159,,,,,,,,,,,,
CalCOFI,2101RL,047,,2101_047d,27-Jan-2021 02:02:27,26-Jan-2021 18:02:27,34.17536,-119.50692,083.3 042.0,083.3,042.0,50.000,50.366,,12.4611,,12.4607,,12.4609,33.6379,,33.6437,33.6357,,33.6377,33.6407,4.0377,,4.2258,4.2802,3.9882,,4.2339,4.2867,4.2835,175.849,184.3389,158.1012,173.693,195.9992,158.1420,158.1216,0.0706,,0.3303,0.4654, ,, , ,25.4445,,25.4428,,0.8176,81.5135,,,,3.6947E+00,,1.0000E-12,,12.4545,12.4541,0.1309,253.802,66.793,65.972,50,,33.6242,4.320,188.44,0.589,0.256,,,,,
CalCOFI,2101RL,047,,2101_047d,27-Jan-2021 02:02:29,26-Jan-2021 18:02:29,34.17535,-119.50692,083.3 042.0,083.3,042.0,51.000,51.374,,12.4542,,12.4542,,12.4542,33.6386,,33.6444,33.6363,,33.6383,33.6414,4.0170,,4.2041,4.2586,3.9721,,4.2168,4.2695,4.2641,174.950,183.3979,157.4483,172.993,194.9995,157.6279,157.5381,0.0706,,0.3303,0.4654, ,, , ,25.4464,,25.4447,,0.8142,81.5831,,,,3.6947E+00,,1.0000E-12,,12.4475,12.4475,0.1335,253.642,66.442,65.698,,,,,,,,,,,,
CalCOFI,2101RL,047,,2101_047d,27-Jan-2021 02:02:30,26-Jan-2021 18:02:30,34.17534,-119.50692,083.3 042.0,083.3,042.0,52.000,52.381,,12.4421,,12.4421,,12.4421,33.6401,,33.6459,33.6379,,33.6399,33.6429,3.9813,,4.1667,4.2212,3.9452,,4.1882,4.2408,4.2310,173.394,181.7690,156.3181,171.820,193.2693,156.7663,156.5422,0.0693,,0.3197,0.4520, ,, , ,25.4499,,25.4482,,0.8145,81.5782,,,,3.6947E+00,,1.0000E-12,,12.4353,12.4352,0.1360,253.337,65.835,65.237,,,,,,,,,,,,